Flag for U.S.A. Weather past 2 weeks in Kodiak, Alaska, U.S.A.

Now
62 °F

Scattered clouds.


Feels Like: 62 °F
Forecast: 52 / 62 °F
Wind: 5 mph from Northeast

Location: Kodiak Weather Reporting Station

Current Time: Aug 22, 2014 at 1:50:47 PM

Latest Report: Aug 22, 2014 at 12:53 PM


Visibility: 10 mi

Pressure: 30.22 "Hg

Humidity: 70%

Dew point: 52 °F

Location of KodiakLocation

Historic Weather in Kodiak — Graph

°F

Kodiak temperature yesterday

Maximum temperature yesterday: 61 °F (at 3:53 PM)
Minimum temperature yesterday: 48 °F (at 6:53 AM)
Average temperature yesterday: 55 °F

Past Weeks' High & Low Weather Summary

 TemperatureHumidityPressure
High68 °F (Aug 18, 4:53 PM)100% (Aug 7, 11:53 AM)30.22 "Hg (Aug 7, 11:53 AM)
Low46 °F (Aug 20, 5:00 AM)42% (Aug 18, 4:53 PM)29.33 "Hg (Aug 8, 6:53 PM)
Average56 °F86%29.67 "Hg
* Reported Aug 7 11:53 AM — Aug 22 11:53 AM, Kodiak, Weather by CustomWeather, © 2014

Note: Actual official high and low records may vary slightly from our data, if they occured in-between our weather recording intervals... More about our weather records

Advertising

Kodiak weather history for previous 24 hours

 ConditionsComfort  
Time TempWeatherWind HumidityBarometerVisibility
11:53 AM
Aug 22
60 °FScattered clouds.6 mph75%30.22 "Hg10 mi
10:53 AM59 °FScattered clouds.3 mph78%30.21 "Hg10 mi
9:53 AM57 °FBroken clouds.No wind83%30.21 "Hg10 mi
8:53 AM56 °FPartly sunny.No wind87%30.21 "Hg10 mi
7:53 AM56 °FMostly cloudy.3 mph87%30.19 "Hg10 mi
6:53 AM57 °FOvercast.No wind83%30.19 "Hg10 mi
5:53 AM56 °FOvercast.No wind87%30.19 "Hg10 mi
4:53 AM56 °FOvercast.No wind87%30.19 "Hg10 mi
3:53 AM56 °FOvercast.No wind87%30.19 "Hg10 mi
2:53 AM56 °FOvercast.3 mph87%30.20 "Hg10 mi
2:01 AM57 °FMostly cloudy.5 mph82%30.20 "Hg10 mi
12:53 AM56 °FMostly cloudy.7 mph87%30.19 "Hg10 mi
11:53 PM
Aug 21
56 °FMostly cloudy.3 mph87%30.19 "Hg10 mi
10:53 PM55 °FOvercast.3 mph90%30.19 "Hg10 mi
9:53 PM56 °FCloudy.No wind90%30.18 "Hg10 mi
8:53 PM58 °FMostly cloudy.No wind84%30.18 "Hg10 mi
7:53 PM58 °FMostly cloudy.No wind81%30.19 "Hg10 mi
7:02 PM59 °FPartly sunny.No wind77%30.19 "Hg10 mi
5:53 PM61 °FMore clouds than sun.No wind72%30.19 "Hg10 mi
4:53 PM60 °FMore clouds than sun.6 mph72%30.20 "Hg10 mi
3:53 PM61 °FMore clouds than sun.5 mph72%30.20 "Hg10 mi
2:53 PM60 °FMore clouds than sun.5 mph78%30.20 "Hg10 mi
1:53 PM59 °FMore clouds than sun.7 mph81%30.21 "Hg10 mi
Weather by CustomWeather, © 2014

See weather overviewHow to use our weather pages